Location: Unspecified
(22.6800°N, 112.2000°E)
Time: 04:13:33
(UTC+08:00)

N. Korean satellite - Visible Passes

Search period start: 23 June 2021 00:00
Search period end: 03 July 2021 00:00
Orbit: 450 x 499 km, 97.2° (Epoch: 22 June)

Date Brightness Start Highest point End Pass type
(mag) Time Alt. Az. Time Alt. Az. Time Alt. Az.
23 Jun 9.4 04:58:15 10° NE 05:00:49 18° E 05:03:22 10° SE visible
26 Jun 8.8 05:09:03 10° NE 05:12:10 26° E 05:15:18 10° SSE visible
27 Jun 9.9 04:44:01 10° E 04:44:48 11° E 04:45:36 10° ESE visible
29 Jun 8.1 05:20:01 10° NNE 05:23:29 40° E 05:26:56 10° S visible
30 Jun 9.5 04:53:50 10° ENE 04:56:08 16° E 04:58:24 10° SE visible
